Content
SEND FEEDBACK

Daily
Averages
Monthly
Summary
United States of America

AIRWAY HEIGHTS, WASHINGTON


Home > North America > United States > Washington
Elevation: 2335 feet     Latitude: 47 37N     Longitude: 117 31W

WEATHER
 
SELECT A DAY
Number of Records: 187,953;   Date Range: 1/1/95 - 7/29/14
 
SHARE

PRINT THIS DATA

[ ← Previous Day ]
WEATHER ALMANAC - JANUARY 31, 2013
[ Next Day → ]
[ °C ]   °F
Weather ElementAverageHighLow
Temperature36.4 °F39.9 °F (2:53 pm)33.8 °F (1:26 am)
Dewpoint34.6 °F36 °F (8:53 am)32 °F (11:53 pm)
Humidity93.1 %100 % (1:26 am)86 % (2:53 pm)
Barometer30.24 in30.29 in (10:53 am)30.19 in (2:34 pm)
Wind Speed7.4 mph12.7 mph (3:53 am)
Weather ElementAverage
Visibility5.4 mi
Wind DirectionS (185 °)

Weather ElementTotal
Precipitation---
Heating Degree Days28.2 (Base 65)
Averaged from 28 records on January 31, 2013
WEATHER CONDITIONS BREAKOUT
WIND DIRECTION BREAKOUT
WEATHER BY HOUR - JANUARY 31, 2013
[ °C ]   °F
Local TimeTemperatureDewpointHumidityBarometerVisibilityWind DirectionWind SpeedGust SpeedPrecipitationEventsConditions
1:26 AM33.8 °F33.8 °F100 %30.21 in0.5 miSouth (170°)4.6 mphOvercast
1:45 AM33.8 °F33.8 °F100 %30.22 in2.0 miSouth (180°)8.1 mphOvercast
1:53 AM34.0 °F33.1 °F96 %30.27 in2.0 miSouth (190°)6.9 mphOvercast
2:53 AM35.1 °F33.1 °F92 %30.26 in2.0 miSSW (200°)10.4 mphOvercast
3:53 AM35.1 °F33.1 °F92 %30.26 in2.0 miSSW (200°)12.7 mphOvercast
4:16 AM33.8 °F33.8 °F100 %30.22 in0.5 miSW (220°)8.1 mphOvercast
4:53 AM35.1 °F33.1 °F92 %30.27 in1.0 miSSW (210°)4.6 mphOvercast
5:53 AM35.1 °F34.0 °F96 %30.27 in1.0 miSE (130°)3.5 mphOvercast
6:53 AM35.1 °F34.0 °F96 %30.28 in0.5 miCalmFogFog
7:53 AM35.1 °F35.1 °F100 %30.27 in0.2 miSouth (180°)4.6 mphFogFog
8:53 AM36.0 °F36.0 °F100 %30.27 in0.5 miSouth (190°)8.1 mphFogFog
9:53 AM36.0 °F36.0 °F100 %30.28 in0.5 miSSW (210°)10.4 mphOvercast
10:53 AM36.0 °F35.1 °F97 %30.29 in0.5 miSSW (200°)10.4 mphFogFog
11:53 AM37.0 °F36.0 °F96 %30.28 in1.0 miSSW (200°)9.2 mphOvercast
12:17 PM37.4 °F35.6 °F93 %30.22 in8.0 miSSW (200°)6.9 mphOvercast
12:53 PM37.0 °F35.1 °F93 %30.27 in10.0 miSSW (200°)10.4 mphOvercast
1:53 PM39.0 °F36.0 °F89 %30.25 in10.0 miSSW (200°)6.9 mphOvercast
2:34 PM39.2 °F35.6 °F87 %30.19 in10.0 miSSW (200°)8.1 mphMostly Cloudy
2:53 PM39.9 °F36.0 °F86 %30.25 in10.0 miSSW (200°)10.4 mphMostly Cloudy
3:53 PM39.0 °F35.1 °F86 %30.25 in10.0 miSSW (210°)8.1 mphOvercast
4:53 PM39.0 °F35.1 °F86 %30.23 in10.0 miSSW (210°)9.2 mph0.00 inRainLight Rain
5:53 PM37.9 °F35.1 °F89 %30.22 in10.0 miSouth (180°)5.8 mph0.00 inRainLight Rain
6:53 PM39.0 °F35.1 °F86 %30.21 in10.0 miSouth (190°)9.2 mph0.00 inOvercast
7:53 PM37.9 °F35.1 °F89 %30.21 in10.0 miCalmMostly Cloudy
8:53 PM36.0 °F34.0 °F93 %30.20 in10.0 miSSW (200°)8.1 mphScattered Clouds
9:53 PM37.0 °F35.1 °F93 %30.19 in10.0 miSSW (210°)8.1 mphMostly Cloudy
10:53 PM36.0 °F33.1 °F89 %30.20 in10.0 miSW (220°)9.2 mphScattered Clouds
11:53 PM34.0 °F32.0 °F92 %30.22 in10.0 miWest (280°)4.6 mphPartly Cloudy
Hourly data recorded from KGEG, located miles away from Airway Heights, Washington







STORIES FROM OUR PARTNERS